Regional Weather Roundup
Issued by NWS

Home | Current Version | Previous Version | Graphics & Text | Print | Product List | Glossary On
Versions: 1 2 3 4 5 6 7 8 9 10 11 12 13 14 15 16 17 18 19 20 21 22 23 24 25 26 27 28 29 30 31 32 33 34 35 36 37 38 39 40 41 42 43 44 45 46 47 48 49 50
302
ASUS43 KBIS 231002
RWRND

NORTH DAKOTA REGIONAL WEATHER ROUNDUP
NATIONAL WEATHER SERVICE BISMARCK ND
500 AM CDT MON APR 23 2018

NOTE: "FAIR" INDICATES FEW OR NO CLOUDS BELOW 12,000 FEET WITH NO
SIGNIFICANT WEATHER AND/OR OBSTRUCTIONS TO VISIBILITY.


NDZ001>003-009>011-017-231100-
NORTHWEST NORTH DAKOTA

CITY           SKY/WX    TMP DP  RH WIND       PRES   REMARKS
WILLISTON      FAIR      35  30  82 NE6       30.22R
MINOT          CLEAR     39  29  67 W8        30.18R
MINOT AFB      CLEAR     32  26  81 NW10      30.17R
$$

NDZ018>021-031>035-040>046-231100-
SOUTHWEST NORTH DAKOTA

CITY           SKY/WX    TMP DP  RH WIND       PRES   REMARKS
BISMARCK       FAIR      37  35  92 SE8       30.14R
DICKINSON      FAIR      42  30  62 N13       30.14R
GARRISON         N/A     37  30  75 N8        30.17R
HETTINGER ARPT FAIR      35  31  85 CALM      30.13R
$$

NDZ004>008-012>016-024-026-027-054-231100-
NORTHEAST NORTH DAKOTA

CITY           SKY/WX    TMP DP  RH WIND       PRES   REMARKS
GRAND FORKS    FAIR      36  36 100 VRB3      30.13R
GRND FRKS AFB  FAIR      43  37  80 W9        30.13R
DEVILS LAKE    FAIR      38  30  73 NW5       30.16R
$$

NDZ022-023-025-028>030-036>039-047>053-231100-
SOUTHEAST NORTH DAKOTA

CITY           SKY/WX    TMP DP  RH WIND       PRES   REMARKS
FARGO          MOCLDY    42  37  82 S7        30.17R
JAMESTOWN      CLEAR     39  33  79 SW3       30.14S
$$





USA.gov is the U.S. government's official web portal to all federal, state and local government web resources and services.